This is the latest recevied weather packets stored in our database for station/object KB9MLJ. If no packets are shown the sender has not sent any weather packets the latest 1 day(s).
| Time | Temp. | Humidity | Pressure | Rain* | Wind** | Luminosity | Snow |
|---|---|---|---|---|---|---|---|
| 1778012635 | 12.22° C | 55% | 1009.9 hPa | 0 mm | 3.58 m/s, 300° | 95 W/m² | - |
| 1778012332 | 12.22° C | 55% | 1009.9 hPa | 0 mm | 2.24 m/s, 291° | 94 W/m² | - |
| 1778012029 | 12.22° C | 56% | 1009.9 hPa | 0 mm | 3.13 m/s, 298° | 96 W/m² | - |
| 1778011727 | 12.22° C | 53% | 1009.5 hPa | 0 mm | 2.68 m/s, 302° | 99 W/m² | - |
| 1778011424 | 12.22° C | 52% | 1009.5 hPa | 0 mm | 3.58 m/s, 340° | 102 W/m² | - |
| 1778011119 | 12.22° C | 53% | 1009.2 hPa | 0 mm | 2.24 m/s, 305° | 121 W/m² | - |
| 1778010816 | 12.78° C | 53% | 1009.5 hPa | 0 mm | 2.68 m/s, 317° | 129 W/m² | - |
| 1778010514 | 12.78° C | 56% | 1009.5 hPa | 0 mm | 0.45 m/s, 324° | 140 W/m² | - |
| 1778010212 | 12.22° C | 55% | 1009.5 hPa | 0 mm | 2.68 m/s, 339° | 158 W/m² | - |
| 1778009912 | 12.22° C | 54% | 1009.5 hPa | 0 mm | 2.68 m/s, 303° | 161 W/m² | - |
| 1778009610 | 12.22° C | 55% | 1009.5 hPa | 0 mm | 2.24 m/s, 337° | 163 W/m² | - |
| 1778009307 | 12.78° C | 57% | 1009.5 hPa | 0 mm | 3.13 m/s, 304° | 165 W/m² | - |
| 1778009005 | 12.22° C | 56% | 1009.5 hPa | 0 mm | 2.24 m/s, 291° | 171 W/m² | - |
| 1778008703 | 12.78° C | 56% | 1009.5 hPa | 0 mm | 2.24 m/s, 343° | 191 W/m² | - |
| 1778008401 | 12.22° C | 56% | 1009.5 hPa | 0 mm | 2.68 m/s, 325° | 189 W/m² | - |
| 1778008097 | 12.22° C | 56% | 1009.5 hPa | 0 mm | 3.58 m/s, 349° | 177 W/m² | - |
| 1778007793 | 12.22° C | 56% | 1009.5 hPa | 0 mm | 2.24 m/s, 342° | 167 W/m² | - |
| 1778007489 | 12.22° C | 55% | 1009.5 hPa | 0 mm | 3.58 m/s, 306° | 186 W/m² | - |
| 1778007186 | 12.78° C | 55% | 1009.5 hPa | 0 mm | 3.58 m/s, 347° | 205 W/m² | - |
| 1778006881 | 12.78° C | 56% | 1009.5 hPa | 0 mm | 3.13 m/s, 321° | 235 W/m² | - |
| 1778006579 | 13.33° C | 55% | 1009.5 hPa | 0 mm | 3.58 m/s, 285° | 234 W/m² | - |
| 1778006276 | 13.33° C | 54% | 1009.5 hPa | 0 mm | 2.68 m/s, 314° | 248 W/m² | - |
| 1778005973 | 12.78° C | 54% | 1009.5 hPa | 0 mm | 1.79 m/s, 298° | 262 W/m² | - |
| 1778005670 | 13.33° C | 55% | 1009.5 hPa | 0 mm | 2.68 m/s, 0° | 280 W/m² | - |
| 1778005366 | 13.89° C | 56% | 1009.5 hPa | 0 mm | 4.02 m/s, 304° | 285 W/m² | - |
* Rain latest hour (hover to see other rain measurements)
** Current wind speed in m/s (hover to see current wind gust speed)